[[{"header":{"parameterUnit":"m.s-1","parameterCategory":2,"la1":30.2991,"la2":30.254,"lo1":-89.0895,"lo2":-89.0444,"dy":0.0017,"dx":0.0017,"nx":28,"ny":28,"refTime":"2026-02-13T09:00:00:Z","depth":"0","parameterNumber":2,"parameterNumberName":"U-component_of_CURRENTS"},"data":[0,0,0,0,0,0,0,0,0,0,0,0,0,0,0,0,0,0,0,0,0,0,0,0,0,0,0,0,0,0,0,0,0,0,0,0,0,0,0,0,0,0,0,0,0,0,0,0,0,0,0,0,0,0,0,0,0,0,-0.2019,-0.2019,0,-0.2117,-0.2118,-0.212,-0.2213,-0.2213,-0.2214,-0.2215,-0.2318,-0.232,-0.2322,0,0,0,0,0,0,0,0,0,0,0,0,0,-0.1967,-0.1967,-0.2019,-0.2019,-0.202,-0.2117,-0.2119,-0.212,-0.2212,-0.2213,-0.2214,-0.2215,-0.2317,-0.2319,-0.2322,0,0,0,0,0,0,0,0,0,0,0,0,0,-0.2024,-0.1967,-0.2018,-0.2074,-0.208,-0.2116,-0.2119,-0.2121,-0.2212,-0.2213,-0.2214,-0.2215,-0.2316,-0.2319,-0.2322,-0.2321,0,0,-0.2332,-0.2333,0,0,0,0,0,0,0,0,-0.2021,-0.2026,-0.2065,-0.207,-0.2076,-0.2149,-0.2138,-0.2186,-0.2212,-0.2167,-0.2215,-0.2216,-0.2258,-0.2266,-0.2289,-0.2325,-0.233,-0.2332,-0.2334,-0.2335,-0.2336,0,0,0,0,0,0,0,-0.2016,-0.2023,-0.2063,-0.2066,-0.2073,-0.2113,-0.2122,-0.2148,-0.2209,-0.2171,-0.2177,-0.218,-0.2262,-0.2286,-0.2292,-0.2331,-0.2332,-0.2335,-0.2337,-0.2338,-0.2338,-0.2336,0,0,0,0,0,0,-0.199,-0.2019,-0.2059,-0.2065,-0.2045,-0.2112,-0.2123,-0.2129,-0.2209,-0.2221,-0.2178,-0.2183,-0.228,-0.2288,-0.2296,-0.2275,-0.2335,-0.2338,-0.234,-0.234,-0.2338,-0.2335,0,0,0,0,0,0,-0.1989,-0.1993,-0.2055,-0.204,-0.205,-0.2111,-0.2118,-0.213,-0.2152,-0.2214,-0.2227,-0.2186,-0.2281,-0.2291,-0.2314,-0.228,-0.234,-0.2343,-0.2342,-0.2339,-0.2336,-0.2247,0,0,0,0,0,0,-0.1987,-0.1992,-0.1992,-0.2038,-0.205,-0.2069,-0.2116,-0.2131,-0.215,-0.2157,-0.2224,-0.2236,-0.2283,-0.2309,-0.2317,-0.2286,-0.2345,-0.2344,-0.2341,-0.2337,-0.2252,-0.2242,-0.2232,0,0,0,0,0,-0.1985,-0.1987,-0.1991,-0.1996,-0.2046,-0.2068,-0.2078,-0.2129,-0.2149,-0.2154,-0.2197,-0.2234,-0.2291,-0.231,-0.232,-0.2289,-0.2346,-0.2342,-0.2338,-0.2257,-0.2244,-0.2233,0,0,0,0,0,0,-0.1973,-0.1997,-0.2003,-0.2014,-0.2029,-0.2082,-0.2096,-0.2116,-0.2156,-0.2166,-0.2223,-0.2237,-0.2237,-0.2272,-0.2291,-0.2275,-0.2319,-0.2316,-0.2254,-0.2242,-0.2232,-0.225,-0.2348,0,0,0,0,0,-0.1962,-0.1965,-0.1989,-0.1994,-0.2001,-0.204,-0.2056,-0.2083,-0.2119,-0.2139,-0.2176,-0.2209,-0.2226,-0.2243,-0.2266,-0.2267,-0.2285,-0.2247,-0.2236,-0.2228,-0.2247,-0.2232,-0.2223,-0.2322,-0.2322,-0.2322,0,0,-0.1957,-0.197,-0.1972,-0.199,-0.2013,-0.2025,-0.2055,-0.2072,-0.2081,-0.2141,-0.2162,-0.2175,-0.2216,-0.2216,-0.2217,-0.2244,-0.2201,-0.2223,-0.2215,-0.224,-0.2227,-0.2217,-0.2209,-0.2319,-0.2319,-0.232,0,0,-0.1951,-0.1958,-0.196,-0.1971,-0.1988,-0.201,-0.2005,-0.2038,-0.2053,-0.2064,-0.2097,-0.2093,-0.2132,-0.2147,-0.2162,-0.2107,-0.2143,-0.2101,-0.2076,-0.206,-0.2052,-0.2046,-0.2025,-0.2018,-0.2102,-0.2102,-0.2102,0,-0.1944,-0.1949,-0.1962,-0.197,-0.1979,-0.1996,-0.2001,-0.2016,-0.2048,-0.2051,-0.206,-0.208,-0.21,-0.21,-0.208,-0.2085,-0.2087,-0.212,-0.2048,-0.2042,-0.2037,-0.2018,-0.2011,-0.2097,-0.2098,-0.2098,-0.2099,0,-0.194,-0.1946,-0.1948,-0.1959,-0.1969,-0.1973,-0.1987,-0.1989,-0.1994,-0.2007,-0.1993,-0.2008,-0.2027,-0.2006,-0.2035,-0.1999,-0.2013,-0.203,-0.2082,-0.2022,-0.2005,-0.1999,-0.2091,-0.2092,-0.2094,-0.2095,0,0,-0.1915,-0.194,-0.1939,-0.1945,-0.1963,-0.197,-0.1972,-0.1976,-0.198,-0.1972,-0.197,-0.1957,-0.1957,-0.1973,-0.1978,-0.196,-0.19,-0.1981,-0.1983,-0.1967,-0.1861,-0.1752,-0.1736,-0.1907,-0.1907,-0.1906,-0.1853,0,-0.1905,-0.1915,-0.1931,-0.1936,-0.1942,-0.1958,-0.1962,-0.1967,-0.1968,-0.1966,-0.195,-0.1951,-0.1947,-0.1945,-0.1921,-0.192,-0.1888,-0.1914,-0.1919,-0.1919,-0.1834,-0.1726,-0.1669,-0.1607,-0.1848,-0.1847,-0.1846,0,-0.1887,-0.1899,-0.1904,-0.1927,-0.1931,-0.1936,-0.1944,-0.1951,-0.1952,-0.1953,-0.1941,-0.1944,-0.1916,-0.1917,-0.1874,-0.1893,-0.1872,-0.1859,-0.1857,-0.1793,-0.1799,-0.1711,-0.1588,-0.1585,-0.1838,-0.1839,-0.1839,0,-0.1851,-0.1875,-0.1877,-0.1885,-0.1914,-0.1916,-0.1929,-0.1939,-0.194,-0.1945,-0.194,-0.1924,-0.1905,-0.1882,-0.1844,-0.1865,-0.179,-0.1819,-0.1695,-0.1688,-0.1661,-0.1651,-0.1545,-0.1776,-0.1776,-0.1776,-0.1776,0,-0.1824,-0.1824,-0.1861,-0.1861,-0.1863,-0.1896,-0.1894,-0.1908,-0.1921,-0.1916,-0.1927,-0.191,-0.1895,-0.1854,-0.1833,-0.1726,-0.1775,-0.1669,-0.1655,-0.1621,-0.1609,-0.1626,-0.1665,-0.1774,-0.1774,-0.1775,-0.1775,0,-0.1769,-0.1798,-0.1801,-0.1835,-0.1843,-0.1842,-0.1867,-0.1866,-0.189,-0.1883,-0.1884,-0.1884,-0.1822,-0.1783,-0.1737,-0.1685,-0.1585,-0.1575,-0.1525,-0.1503,-0.1365,-0.1403,-0.1319,-0.1276,-0.1425,-0.1422,-0.1419,0,-0.1737,-0.1734,-0.1766,-0.1767,-0.1777,-0.1787,-0.1791,-0.1834,-0.1839,-0.186,-0.1849,-0.1801,-0.1741,-0.161,-0.152,-0.142,-0.1458,-0.1313,-0.1326,-0.1315,-0.135,-0.1395,-0.137,-0.1257,-0.1254,-0.125,-0.1248,0,-0.1666,-0.168,-0.1685,-0.169,-0.1697,-0.1703,-0.172,-0.1722,-0.1772,-0.1764,-0.174,-0.1697,-0.1571,-0.1427,-0.1287,-0.1233,-0.1281,-0.1241,-0.1255,-0.121,-0.1233,-0.1199,-0.1344,-0.122,-0.1223,-0.1225,-0.1226,-0.1227,-0.1599,-0.1588,-0.1598,-0.1591,-0.1604,-0.1599,-0.1564,-0.1596,-0.1582,-0.1521,-0.1591,-0.1439,-0.1382,-0.1159,-0.1095,-0.0971,-0.1043,-0.0957,-0.1004,-0.1051,-0.0993,-0.105,-0.0889,-0.089,-0.0891,-0.0892,-0.0892,0,-0.1501,-0.1499,-0.1495,-0.1484,-0.1454,-0.1495,-0.1491,-0.1421,-0.1363,-0.1292,-0.1236,-0.1095,-0.1007,-0.0937,-0.0855,-0.0784,-0.0792,-0.0772,-0.0863,-0.0847,-0.0913,-0.0886,-0.0686,-0.0686,-0.0686,-0.0686,-0.0686,-0.0686,-0.1449,-0.1408,-0.1407,-0.1325,-0.1317,-0.1238,-0.1207,-0.111,-0.1011,-0.0802,-0.0647,-0.0562,-0.0667,-0.0852,-0.0812,-0.0754,-0.0763,-0.0722,-0.0744,-0.0847,-0.087,-0.0892,-0.0874,-0.0674,-0.0674,-0.0655,-0.0655,-0.0655]},{"header":{"parameterUnit":"m.s-1","parameterCategory":2,"la1":30.2991,"la2":30.254,"lo1":-89.0895,"lo2":-89.0444,"dy":0.0017,"dx":0.0017,"nx":28,"ny":28,"refTime":"2026-02-13T09:00:00:Z","depth":"0","parameterNumber":3,"parameterNumberName":"V-component_of_CURRENTS"},"data":[0,0,0,0,0,0,0,0,0,0,0,0,0,0,0,0,0,0,0,0,0,0,0,0,0,0,0,0,0,0,0,0,0,0,0,0,0,0,0,0,0,0,0,0,0,0,0,0,0,0,0,0,0,0,0,0,0,0,-0.0456,-0.0455,0,-0.0381,-0.038,-0.0378,-0.0263,-0.0261,-0.026,-0.0259,0.0087,0.0094,0.0102,0,0,0,0,0,0,0,0,0,0,0,0,0,-0.0442,-0.0443,-0.0456,-0.0455,-0.0455,-0.0381,-0.038,-0.0378,-0.0263,-0.0261,-0.026,-0.0258,0.0084,0.0093,0.0103,0,0,0,0,0,0,0,0,0,0,0,0,0,-0.0409,-0.0443,-0.0456,-0.0394,-0.0389,-0.0382,-0.038,-0.0377,-0.0263,-0.0261,-0.0259,-0.0257,0.0081,0.0092,0.0104,0.0136,0,0,0.014,0.0146,0,0,0,0,0,0,0,0,-0.0411,-0.0409,-0.0404,-0.0399,-0.0392,-0.0336,-0.0249,-0.0195,-0.0264,-0.0303,-0.0259,-0.0256,-0.0036,-0.0014,0.0002,0.0152,0.0167,0.0142,0.0149,0.0154,0.0157,0,0,0,0,0,0,0,-0.0414,-0.0411,-0.0418,-0.0404,-0.0397,-0.0352,-0.0345,-0.0238,-0.0171,-0.03,-0.0293,-0.0297,-0.0029,-0.001,0.0012,0.0172,0.0141,0.0152,0.0159,0.0164,0.0356,0.0354,0,0,0,0,0,0,-0.0443,-0.0414,-0.0421,-0.0417,-0.0405,-0.0355,-0.0346,-0.035,-0.0178,-0.0154,-0.0299,-0.0292,-0.0031,-0.0003,0.0024,0.0083,0.0154,0.0165,0.0172,0.0358,0.0355,0.0353,0,0,0,0,0,0,-0.0443,-0.0445,-0.0424,-0.0419,-0.0414,-0.0358,-0.0363,-0.035,-0.0325,-0.0182,-0.0151,-0.0288,-0.0029,0.0008,0.0102,0.0098,0.017,0.0181,0.036,0.0357,0.0354,0.0196,0,0,0,0,0,0,-0.0443,-0.0445,-0.045,-0.0422,-0.0416,-0.0417,-0.0365,-0.035,-0.0335,-0.0325,-0.0162,-0.0129,-0.0024,0.0083,0.0114,0.0116,0.019,0.0362,0.0359,0.0355,0.0203,0.0188,0.0174,0,0,0,0,0,-0.0443,-0.0454,-0.045,-0.0451,-0.0427,-0.0419,-0.0411,-0.0358,-0.0337,-0.0327,-0.0237,-0.0134,0.0081,0.0091,0.0127,0.0133,0.0364,0.036,0.0355,0.021,0.0191,0.0174,0,0,0,0,0,0,-0.0442,-0.0443,-0.0438,-0.0447,-0.0439,-0.0402,-0.0391,-0.0372,-0.03,-0.028,-0.0147,-0.0108,-0.0037,0.006,0.0067,0.0169,0.0235,0.0238,0.0112,0.0096,0.0081,0.0086,0.02,0,0,0,0,0,-0.0454,-0.0463,-0.0458,-0.0466,-0.0465,-0.0436,-0.0426,-0.04,-0.0344,-0.0311,-0.0213,-0.011,-0.0032,0.0041,0.0125,0.02,0.0276,0.0219,0.0205,0.0192,0.0215,0.0279,0.0273,0.0338,0.0338,0.0338,0,0,-0.0458,-0.046,-0.0465,-0.0467,-0.0452,-0.0455,-0.0421,-0.0414,-0.0404,-0.028,-0.0224,-0.0157,-0.0032,0.0032,0.0076,0.0124,0.0206,0.0186,0.0174,0.0206,0.0274,0.0268,0.0263,0.0335,0.0335,0.0336,0,0,-0.0474,-0.0474,-0.0488,-0.0487,-0.0485,-0.0469,-0.0476,-0.0452,-0.0423,-0.0381,-0.0308,-0.0251,-0.0111,-0.0037,0.0023,-0.0019,0.0108,0.0002,-0.0033,0.0026,0.0022,0.002,0.0082,0.0086,0.0016,0.0016,0.0015,0,-0.0478,-0.0499,-0.049,-0.0503,-0.0505,-0.0483,-0.0496,-0.0472,-0.042,-0.0396,-0.0373,-0.0235,-0.0141,-0.0062,-0.0088,-0.0045,0.0008,0.0024,0.0008,0.0008,0.0008,0.0073,0.008,0.0008,0.0008,0.0009,0.001,0,-0.0508,-0.0521,-0.0529,-0.054,-0.0538,-0.0547,-0.0529,-0.0516,-0.0492,-0.0462,-0.0405,-0.0313,-0.022,-0.0207,-0.0148,-0.0109,-0.0069,-0.0038,0.0054,-0.0008,0.0064,0.0074,-0.0004,-0.0001,0.0001,0.0003,0,0,-0.0527,-0.0548,-0.0551,-0.0564,-0.0561,-0.0565,-0.0555,-0.0537,-0.0524,-0.048,-0.0451,-0.0366,-0.033,-0.0264,-0.0203,-0.0151,-0.0129,-0.0098,-0.0091,-0.0034,0.0005,0.0057,0.0075,-0.0105,-0.0104,-0.0103,0.0045,0,-0.0554,-0.0592,-0.0589,-0.0615,-0.0634,-0.0611,-0.0603,-0.0579,-0.0545,-0.051,-0.0435,-0.0381,-0.0346,-0.0314,-0.0264,-0.0159,-0.0104,-0.0171,0.0058,0.0065,0.0121,0.0088,0.0106,0.0241,0.0056,0.0058,0.0059,0,-0.0588,-0.0609,-0.0646,-0.0659,-0.0663,-0.0669,-0.0653,-0.0642,-0.0583,-0.0553,-0.0495,-0.0434,-0.0354,-0.0327,-0.0164,-0.021,-0.0113,-0.0035,-0.0027,0.0097,0.0137,0.028,0.0269,0.0368,0.0077,0.0075,0.0074,0,-0.0619,-0.0648,-0.068,-0.0687,-0.0696,-0.0698,-0.0694,-0.0653,-0.0637,-0.0577,-0.0552,-0.0453,-0.039,-0.0275,-0.0123,-0.0141,0.0061,0.0064,0.0207,0.0212,0.0317,0.0329,0.0441,0.0183,0.0183,0.0182,0.0182,0,-0.0657,-0.0681,-0.0699,-0.0719,-0.0746,-0.0733,-0.0739,-0.0719,-0.0675,-0.0645,-0.0577,-0.0521,-0.0375,-0.0246,-0.0123,0.0082,0.007,0.0213,0.0258,0.0258,0.0262,0.0429,0.0461,0.0188,0.0187,0.0186,0.0185,0,-0.0692,-0.0704,-0.0743,-0.0761,-0.0767,-0.0786,-0.0781,-0.0776,-0.0732,-0.069,-0.0672,-0.0552,-0.0377,-0.0218,-0.0002,0.0103,0.0359,0.0357,0.0346,0.0387,0.0595,0.0617,0.0823,0.0904,0.0534,0.0536,0.0538,0,-0.0714,-0.074,-0.0779,-0.0803,-0.0815,-0.0834,-0.0843,-0.0811,-0.0797,-0.0697,-0.0675,-0.0506,-0.0363,-0.0039,0.017,0.0411,0.0485,0.0567,0.0538,0.0624,0.0682,0.0693,0.0746,0.0606,0.0608,0.061,0.0612,0,-0.075,-0.0765,-0.0798,-0.085,-0.0875,-0.0896,-0.09,-0.0893,-0.0834,-0.0761,-0.0627,-0.05,-0.0202,0.0083,0.0376,0.0511,0.064,0.0614,0.0713,0.0763,0.0777,0.087,0.0488,0.0628,0.0627,0.0626,0.0625,0.0624,-0.077,-0.0805,-0.0847,-0.0894,-0.0925,-0.0942,-0.0923,-0.0877,-0.0809,-0.0617,-0.0538,-0.023,0.0028,0.0447,0.0581,0.0844,0.0816,0.0926,0.0952,0.096,0.1021,0.0675,0.0855,0.0855,0.0855,0.0854,0.0854,0,-0.079,-0.0831,-0.0884,-0.0935,-0.0966,-0.097,-0.0943,-0.0854,-0.0712,-0.0484,-0.0262,0.0196,0.0484,0.0726,0.1018,0.1163,0.1183,0.1234,0.1244,0.1288,0.1001,0.0986,0.119,0.119,0.119,0.1189,0.1189,0.1189,-0.0803,-0.0859,-0.0891,-0.0951,-0.0979,-0.0942,-0.09,-0.0715,-0.0513,-0.0082,0.0291,0.0558,0.0829,0.1156,0.14,0.1428,0.1554,0.1543,0.1626,0.1399,0.1371,0.1344,0.1338,0.1613,0.1613,0.1902,0.1904,0.1906]}],[{"header":{"parameterUnit":"m.s-1","parameterCategory":2,"la1":30.2991,"la2":30.254,"lo1":-89.0895,"lo2":-89.0444,"dy":0.0017,"dx":0.0017,"nx":28,"ny":28,"refTime":"2026-02-13T09:00:00:Z","depth":"2","parameterNumber":2,"parameterNumberName":"U-component_of_CURRENTS"},"data":[0,0,0,0,0,0,0,0,0,0,0,0,0,0,0,0,0,0,0,0,0,0,0,0,0,0,0,0,0,0,0,0,0,0,0,0,0,0,0,0,0,0,0,0,0,0,0,0,0,0,0,0,0,0,0,0,0,0,-0.1798,-0.1798,0,-0.1818,-0.1818,-0.1818,-0.1816,-0.1816,-0.1816,-0.1815,-0.1829,-0.1829,-0.183,0,0,0,0,0,0,0,0,0,0,0,0,0,-0.1761,-0.1761,-0.1798,-0.1798,-0.1799,-0.1818,-0.1818,-0.1818,-0.1816,-0.1816,-0.1816,-0.1815,-0.1829,-0.1829,-0.183,0,0,0,0,0,0,0,0,0,0,0,0,0,-0.1777,-0.1761,-0.1798,-0.1801,-0.1802,-0.1818,-0.1818,-0.1818,-0.1816,-0.1816,-0.1816,-0.1815,-0.1829,-0.1829,-0.183,-0.1839,0,0,-0.1832,-0.1833,0,0,0,0,0,0,0,0,-0.1776,-0.1778,-0.18,-0.1801,-0.1802,-0.1816,-0.181,-0.1826,-0.1816,-0.1809,-0.1815,-0.1815,-0.1825,-0.1826,-0.1828,-0.184,-0.1841,-0.1832,-0.1833,-0.1833,-0.1833,0,0,0,0,0,0,0,-0.1775,-0.1777,-0.1804,-0.1801,-0.1802,-0.1803,-0.1805,-0.1813,-0.1817,-0.1809,-0.181,-0.1815,-0.1825,-0.1827,-0.1828,-0.1841,-0.1832,-0.1833,-0.1834,-0.1834,-0.1836,-0.1836,0,0,0,0,0,0,-0.1776,-0.1776,-0.1804,-0.1805,-0.179,-0.1804,-0.1806,-0.181,-0.1817,-0.1818,-0.1815,-0.1815,-0.1826,-0.1828,-0.1829,-0.1832,-0.1833,-0.1834,-0.1834,-0.1837,-0.1836,-0.1836,0,0,0,0,0,0,-0.1775,-0.1778,-0.1803,-0.1792,-0.1796,-0.1805,-0.181,-0.1811,-0.1815,-0.1821,-0.1822,-0.1818,-0.1826,-0.1828,-0.1832,-0.1833,-0.1834,-0.1835,-0.1837,-0.1837,-0.1836,-0.1844,0,0,0,0,0,0,-0.1774,-0.1778,-0.178,-0.1792,-0.1796,-0.181,-0.181,-0.1811,-0.1819,-0.1819,-0.1825,-0.1825,-0.1826,-0.1831,-0.1833,-0.1834,-0.1836,-0.1838,-0.1837,-0.1836,-0.1845,-0.1844,-0.1844,0,0,0,0,0,-0.1772,-0.1776,-0.178,-0.1783,-0.18,-0.181,-0.1812,-0.1817,-0.1819,-0.182,-0.1822,-0.1825,-0.1827,-0.1831,-0.1833,-0.1835,-0.1838,-0.1837,-0.1836,-0.1845,-0.1844,-0.1844,0,0,0,0,0,0,-0.1762,-0.1777,-0.1781,-0.179,-0.1799,-0.1811,-0.1813,-0.1819,-0.1822,-0.1822,-0.1826,-0.1827,-0.1831,-0.1829,-0.1834,-0.1831,-0.1831,-0.1831,-0.1837,-0.1836,-0.1836,-0.1835,-0.1836,0,0,0,0,0,-0.1761,-0.1766,-0.1782,-0.1788,-0.1793,-0.1804,-0.181,-0.1814,-0.1821,-0.1822,-0.1826,-0.1827,-0.1829,-0.183,-0.1832,-0.1835,-0.1824,-0.1834,-0.1833,-0.1833,-0.1833,-0.1819,-0.1818,-0.1833,-0.1833,-0.1833,0,0,-0.1758,-0.1768,-0.1771,-0.1785,-0.1793,-0.1803,-0.1806,-0.1815,-0.1821,-0.1823,-0.1829,-0.183,-0.183,-0.1831,-0.1832,-0.183,-0.1821,-0.1832,-0.1832,-0.1832,-0.1818,-0.1817,-0.1816,-0.1832,-0.1832,-0.1833,0,0,-0.1756,-0.1764,-0.1769,-0.1779,-0.1793,-0.1801,-0.1805,-0.1818,-0.1819,-0.1827,-0.1828,-0.1827,-0.1833,-0.183,-0.183,-0.1828,-0.1822,-0.1828,-0.1826,-0.1813,-0.1812,-0.1811,-0.1786,-0.1782,-0.1825,-0.1825,-0.1825,0,-0.1753,-0.1761,-0.1771,-0.1781,-0.1789,-0.1801,-0.1809,-0.1815,-0.1826,-0.1827,-0.1827,-0.1829,-0.1831,-0.183,-0.1828,-0.1828,-0.1816,-0.1831,-0.1813,-0.1812,-0.1811,-0.1785,-0.1782,-0.1825,-0.1825,-0.1825,-0.1825,0,-0.1755,-0.1764,-0.1768,-0.1783,-0.1792,-0.18,-0.1814,-0.182,-0.1825,-0.183,-0.183,-0.1829,-0.1828,-0.1828,-0.183,-0.1822,-0.1814,-0.1818,-0.1817,-0.181,-0.1783,-0.1779,-0.1826,-0.1826,-0.1825,-0.1825,0,0,-0.1735,-0.1763,-0.1763,-0.1772,-0.1794,-0.1801,-0.1813,-0.1823,-0.183,-0.1831,-0.1833,-0.1831,-0.1829,-0.1828,-0.1828,-0.1816,-0.1795,-0.1814,-0.1813,-0.1793,-0.1757,-0.1675,-0.1662,-0.18,-0.1799,-0.1799,-0.1739,0,-0.1731,-0.1747,-0.1763,-0.1777,-0.1786,-0.1804,-0.1815,-0.1827,-0.1832,-0.1837,-0.1831,-0.1834,-0.183,-0.1831,-0.1818,-0.1809,-0.1786,-0.181,-0.1763,-0.1762,-0.1693,-0.1655,-0.1548,-0.1479,-0.1735,-0.1734,-0.1734,0,-0.172,-0.1735,-0.1747,-0.1776,-0.1781,-0.1792,-0.181,-0.1823,-0.1834,-0.1839,-0.1837,-0.1838,-0.1826,-0.1824,-0.1787,-0.1804,-0.1777,-0.1763,-0.176,-0.1678,-0.1671,-0.1529,-0.1462,-0.1727,-0.1727,-0.1728,-0.1728,0,-0.1689,-0.1719,-0.1728,-0.1738,-0.1773,-0.1781,-0.1798,-0.1817,-0.1823,-0.1839,-0.1838,-0.1833,-0.1821,-0.1799,-0.176,-0.1778,-0.171,-0.1732,-0.1627,-0.1621,-0.1516,-0.1501,-0.1693,-0.1693,-0.1694,-0.1694,-0.1694,0,-0.1669,-0.1675,-0.1716,-0.1719,-0.173,-0.1765,-0.1774,-0.1793,-0.1814,-0.1815,-0.1832,-0.1821,-0.1814,-0.1776,-0.1752,-0.166,-0.1697,-0.161,-0.1594,-0.1513,-0.1499,-0.171,-0.1713,-0.1691,-0.1692,-0.1692,-0.1693,0,-0.1622,-0.1652,-0.1663,-0.1703,-0.1713,-0.1719,-0.1752,-0.1758,-0.1788,-0.1789,-0.1792,-0.1799,-0.1747,-0.1715,-0.167,-0.1627,-0.1568,-0.1525,-0.1421,-0.1392,-0.1494,-0.1498,-0.141,-0.1406,-0.1403,-0.1401,-0.1399,0,-0.1596,-0.1597,-0.1635,-0.164,-0.1654,-0.1673,-0.1683,-0.1731,-0.174,-0.1766,-0.1758,-0.1723,-0.1663,-0.1553,-0.1478,-0.1387,-0.1464,-0.1249,-0.126,-0.1468,-0.1462,-0.1471,-0.1478,-0.1125,-0.1121,-0.1117,-0.1115,0,-0.1536,-0.1552,-0.1561,-0.1573,-0.1585,-0.1598,-0.1621,-0.1625,-0.1677,-0.1672,-0.1649,-0.1605,-0.1499,-0.1346,-0.1231,-0.1179,-0.1258,-0.1174,-0.1408,-0.1212,-0.1194,-0.119,-0.1208,-0.1084,-0.1087,-0.1089,-0.1091,-0.1092,-0.148,-0.1473,-0.1486,-0.1485,-0.1503,-0.1501,-0.1469,-0.1502,-0.149,-0.1454,-0.1501,-0.1388,-0.1336,-0.1087,-0.0999,-0.0931,-0.1027,-0.0994,-0.1007,-0.1024,-0.1,-0.0977,-0.0822,-0.0823,-0.0825,-0.0826,-0.0827,0,-0.1395,-0.1395,-0.1394,-0.1387,-0.1362,-0.1404,-0.1402,-0.1347,-0.1289,-0.1287,-0.1236,-0.1066,-0.0933,-0.0884,-0.0723,-0.0676,-0.0696,-0.0655,-0.0696,-0.0725,-0.0752,-0.0718,-0.0463,-0.0462,-0.0461,-0.046,0,0,-0.1351,-0.1316,-0.1313,-0.1237,-0.1229,-0.1148,-0.1118,-0.1062,-0.1028,-0.0938,-0.0879,-0.0905,-0.0875,-0.069,-0.0623,-0.052,-0.0626,-0.0489,-0.078,-0.086,-0.0885,-0.0941,-0.092,0,0,0,0,0]},{"header":{"parameterUnit":"m.s-1","parameterCategory":2,"la1":30.2991,"la2":30.254,"lo1":-89.0895,"lo2":-89.0444,"dy":0.0017,"dx":0.0017,"nx":28,"ny":28,"refTime":"2026-02-13T09:00:00:Z","depth":"2","parameterNumber":3,"parameterNumberName":"V-component_of_CURRENTS"},"data":[0,0,0,0,0,0,0,0,0,0,0,0,0,0,0,0,0,0,0,0,0,0,0,0,0,0,0,0,0,0,0,0,0,0,0,0,0,0,0,0,0,0,0,0,0,0,0,0,0,0,0,0,0,0,0,0,0,0,-0.0451,-0.045,0,-0.041,-0.0409,-0.0409,-0.0369,-0.0369,-0.0369,-0.0369,-0.0222,-0.0218,-0.0214,0,0,0,0,0,0,0,0,0,0,0,0,0,-0.0435,-0.0436,-0.0451,-0.045,-0.045,-0.041,-0.0409,-0.0409,-0.0369,-0.0369,-0.0369,-0.0368,-0.0223,-0.0218,-0.0214,0,0,0,0,0,0,0,0,0,0,0,0,0,-0.042,-0.0436,-0.0451,-0.0428,-0.0426,-0.0411,-0.0409,-0.0408,-0.0369,-0.0369,-0.0369,-0.0368,-0.0224,-0.0219,-0.0213,-0.0185,0,0,-0.0196,-0.0194,0,0,0,0,0,0,0,0,-0.0421,-0.042,-0.0432,-0.043,-0.0427,-0.0397,-0.035,-0.0329,-0.0369,-0.0387,-0.0369,-0.0368,-0.0273,-0.0263,-0.0253,-0.0178,-0.0172,-0.0196,-0.0192,-0.019,-0.0188,0,0,0,0,0,0,0,-0.0422,-0.0421,-0.0431,-0.0432,-0.0429,-0.0401,-0.0398,-0.0346,-0.0328,-0.0386,-0.0383,-0.0385,-0.0271,-0.0259,-0.0249,-0.0169,-0.0196,-0.0191,-0.0188,-0.0185,-0.0046,-0.0046,0,0,0,0,0,0,-0.0438,-0.0423,-0.0432,-0.043,-0.0427,-0.0402,-0.0399,-0.0405,-0.033,-0.0321,-0.0385,-0.0383,-0.0268,-0.0256,-0.0244,-0.02,-0.019,-0.0185,-0.0182,-0.0046,-0.0046,-0.0046,0,0,0,0,0,0,-0.0437,-0.0439,-0.0434,-0.0428,-0.0426,-0.0403,-0.0409,-0.0404,-0.0394,-0.0332,-0.0319,-0.0381,-0.0268,-0.0251,-0.0199,-0.0194,-0.0182,-0.0177,-0.0047,-0.0046,-0.0046,-0.0115,0,0,0,0,0,0,-0.0437,-0.0439,-0.0444,-0.0429,-0.0427,-0.0431,-0.041,-0.0404,-0.0397,-0.0394,-0.0324,-0.031,-0.0266,-0.0208,-0.0194,-0.0186,-0.0173,-0.0047,-0.0047,-0.0046,-0.0113,-0.0117,-0.012,0,0,0,0,0,-0.0437,-0.0447,-0.0444,-0.0445,-0.0436,-0.0432,-0.0427,-0.0407,-0.0397,-0.0396,-0.0347,-0.0313,-0.0194,-0.0203,-0.0187,-0.0177,-0.0048,-0.0047,-0.0046,-0.0111,-0.0116,-0.012,0,0,0,0,0,0,-0.0441,-0.0444,-0.0441,-0.0451,-0.0446,-0.0426,-0.0423,-0.0412,-0.0375,-0.0367,-0.0307,-0.029,-0.0242,-0.0199,-0.0212,-0.0134,-0.0115,-0.011,-0.017,-0.0174,-0.0177,-0.0194,-0.0168,0,0,0,0,0,-0.0447,-0.0455,-0.0452,-0.046,-0.046,-0.0443,-0.0437,-0.0427,-0.0398,-0.0382,-0.0335,-0.0279,-0.0226,-0.0194,-0.0143,-0.0099,-0.0059,-0.0081,-0.0085,-0.0088,-0.009,-0.0031,-0.003,-0.0043,-0.0043,-0.0043,0,0,-0.0451,-0.0453,-0.0458,-0.0461,-0.0453,-0.0456,-0.0438,-0.0436,-0.043,-0.0369,-0.0338,-0.0289,-0.0218,-0.0172,-0.0146,-0.0135,-0.0064,-0.0087,-0.0091,-0.009,-0.003,-0.0029,-0.0028,-0.0042,-0.0043,-0.0043,0,0,-0.0465,-0.0466,-0.0479,-0.0478,-0.0477,-0.0466,-0.0471,-0.0455,-0.0439,-0.041,-0.0361,-0.0313,-0.0237,-0.0186,-0.0149,-0.0138,-0.0087,-0.0122,-0.0148,-0.0092,-0.0091,-0.0089,-0.0044,-0.0037,-0.0121,-0.0121,-0.0121,0,-0.0469,-0.0487,-0.048,-0.0491,-0.0492,-0.0476,-0.0486,-0.0468,-0.0436,-0.0417,-0.0407,-0.0298,-0.0242,-0.0177,-0.0178,-0.0146,-0.0112,-0.0142,-0.0098,-0.0095,-0.0092,-0.0046,-0.0039,-0.0124,-0.0124,-0.0124,-0.0123,0,-0.0494,-0.0505,-0.0512,-0.0521,-0.0518,-0.0526,-0.0509,-0.0498,-0.0478,-0.0453,-0.0397,-0.0328,-0.0263,-0.0239,-0.0204,-0.0154,-0.0137,-0.0114,-0.0094,-0.0096,-0.0046,-0.0037,-0.0129,-0.0128,-0.0127,-0.0126,0,0,-0.051,-0.0527,-0.053,-0.054,-0.0537,-0.054,-0.0529,-0.0511,-0.0499,-0.0458,-0.043,-0.0348,-0.0317,-0.0273,-0.0222,-0.0175,-0.013,-0.0146,-0.0141,-0.0112,-0.0014,-0.0007,0.0004,-0.0104,-0.0103,-0.0101,0.0009,0,-0.0532,-0.0564,-0.056,-0.0581,-0.0596,-0.0575,-0.0566,-0.0543,-0.0512,-0.0479,-0.0409,-0.036,-0.0327,-0.0298,-0.0248,-0.0155,-0.0108,-0.0162,-0.0006,-0.0001,-0.0004,0.0014,-0.0005,0.0091,0.0018,0.002,0.0021,0,-0.056,-0.0577,-0.0607,-0.0617,-0.062,-0.0624,-0.0607,-0.0596,-0.0541,-0.0513,-0.0457,-0.0404,-0.0326,-0.0303,-0.0157,-0.0196,-0.0115,-0.0048,-0.0042,-0.0004,0.0023,0.0085,0.0111,0.0037,0.0036,0.0035,0.0034,0,-0.0586,-0.0609,-0.0635,-0.0641,-0.0646,-0.0648,-0.0644,-0.0605,-0.059,-0.0533,-0.0511,-0.0417,-0.036,-0.0257,-0.013,-0.0139,0.0027,0.004,0.0125,0.0126,0.0157,0.0159,0.0144,0.0144,0.0144,0.0143,0.0143,0,-0.0617,-0.0637,-0.0653,-0.0669,-0.0692,-0.068,-0.0684,-0.0665,-0.0624,-0.0597,-0.0532,-0.0484,-0.0347,-0.0239,-0.0133,0.0023,0.0033,0.0125,0.0159,0.0132,0.013,0.0122,0.0118,0.0147,0.0146,0.0146,0.0145,0,-0.0647,-0.0657,-0.069,-0.0705,-0.0711,-0.0727,-0.0724,-0.0721,-0.0679,-0.0643,-0.0626,-0.0517,-0.0375,-0.024,-0.0052,0.0029,0.017,0.0224,0.0173,0.0198,0.0231,0.0222,0.0331,0.0332,0.0333,0.0334,0.0335,0,-0.0665,-0.0687,-0.0723,-0.0745,-0.0757,-0.0775,-0.0785,-0.0755,-0.0743,-0.0655,-0.0636,-0.05,-0.0393,-0.0135,0.0032,0.0219,0.0223,0.0304,0.0286,0.023,0.0252,0.0242,0.0232,0.0303,0.0303,0.0304,0.0304,0,-0.0697,-0.0711,-0.074,-0.079,-0.0816,-0.0837,-0.0843,-0.084,-0.0788,-0.0735,-0.0633,-0.0539,-0.0303,-0.01,0.0122,0.0228,0.0266,0.0317,0.0299,0.0246,0.0209,0.0229,0.0219,0.0307,0.0307,0.0306,0.0306,0.0306,-0.0716,-0.0748,-0.0788,-0.0833,-0.0864,-0.0888,-0.089,-0.0873,-0.0833,-0.0735,-0.0639,-0.0476,-0.0292,0.0028,0.0188,0.0329,0.0325,0.0364,0.0361,0.0358,0.0322,0.0289,0.0394,0.0394,0.0395,0.0395,0.0395,0,-0.0738,-0.0776,-0.0825,-0.0876,-0.0911,-0.0917,-0.0918,-0.0889,-0.083,-0.0721,-0.06,-0.0375,-0.0158,0.0032,0.0256,0.0385,0.0374,0.0408,0.0367,0.0364,0.036,0.0323,0.0397,0.0397,0.0397,0.0398,0,0,-0.0752,-0.0805,-0.0834,-0.0898,-0.093,-0.0947,-0.094,-0.0877,-0.0791,-0.0655,-0.053,-0.0379,-0.0149,0.0012,0.0178,0.0296,0.0296,0.0306,0.0291,0.022,0.0215,0.0321,0.0258,0,0,0,0,0]}],[{"header":{"parameterUnit":"m.s-1","parameterCategory":2,"la1":30.2991,"la2":30.254,"lo1":-89.0895,"lo2":-89.0444,"dy":0.0017,"dx":0.0017,"nx":28,"ny":28,"refTime":"2026-02-13T09:00:00:Z","depth":"4","parameterNumber":2,"parameterNumberName":"U-component_of_CURRENTS"},"data":[0,0,0,0,0,0,0,0,0,0,0,0,0,0,0,0,0,0,0,0,0,0,0,0,0,0,0,0,0,0,0,0,0,0,0,0,0,0,0,0,0,0,0,0,0,0,0,0,0,0,0,0,0,0,0,0,0,0,-0.1245,-0.1246,0,-0.1269,-0.1269,-0.1269,-0.1284,-0.1285,-0.1285,-0.1285,-0.1301,-0.1301,-0.1301,0,0,0,0,0,0,0,0,0,0,0,0,0,-0.1195,-0.1196,-0.1245,-0.1246,-0.1246,-0.1269,-0.1269,-0.1269,-0.1284,-0.1285,-0.1285,-0.1286,-0.1301,-0.1301,-0.1301,0,0,0,0,0,0,0,0,0,0,0,0,0,-0.1216,-0.1196,-0.1245,-0.1258,-0.126,-0.1269,-0.1269,-0.1269,-0.1284,-0.1285,-0.1285,-0.1286,-0.1301,-0.1301,-0.1301,-0.1293,0,0,-0.1302,-0.1302,0,0,0,0,0,0,0,0,-0.1214,-0.1217,-0.1256,-0.1258,-0.1259,-0.1276,-0.1257,-0.1278,-0.1284,-0.1273,-0.1285,-0.1286,-0.1293,-0.1294,-0.1294,-0.1294,-0.1294,-0.1302,-0.1302,-0.1302,-0.1302,0,0,0,0,0,0,0,-0.1213,-0.1216,-0.1252,-0.1257,-0.1259,-0.1257,-0.126,-0.1261,-0.1278,-0.1274,-0.1275,-0.1282,-0.1294,-0.1294,-0.1295,-0.1295,-0.1302,-0.1302,-0.1302,-0.1302,-0.1347,-0.1348,0,0,0,0,0,0,-0.1215,-0.1215,-0.1252,-0.1253,-0.124,-0.1258,-0.1261,-0.1268,-0.1278,-0.1281,-0.1281,-0.1282,-0.1293,-0.1294,-0.1295,-0.134,-0.1302,-0.1302,-0.1302,-0.1346,-0.1347,-0.1348,0,0,0,0,0,0,-0.1214,-0.1218,-0.1251,-0.1236,-0.1241,-0.1259,-0.1266,-0.1269,-0.1291,-0.1284,-0.1287,-0.1304,-0.1294,-0.1295,-0.1315,-0.1338,-0.1302,-0.1302,-0.1344,-0.1346,-0.1348,-0.1394,0,0,0,0,0,0,-0.1213,-0.1218,-0.1232,-0.1237,-0.1242,-0.1268,-0.1266,-0.1269,-0.1294,-0.1296,-0.1304,-0.1305,-0.1294,-0.1315,-0.1315,-0.1338,-0.1302,-0.1343,-0.1345,-0.1347,-0.1391,-0.1397,-0.1402,0,0,0,0,0,-0.1211,-0.1223,-0.1233,-0.1238,-0.1258,-0.1269,-0.1272,-0.1284,-0.1295,-0.1306,-0.1315,-0.1306,-0.1328,-0.1316,-0.1316,-0.1339,-0.1342,-0.1345,-0.1347,-0.1389,-0.1396,-0.1402,0,0,0,0,0,0,-0.1209,-0.1227,-0.1237,-0.1256,-0.127,-0.1273,-0.1288,-0.1298,-0.1314,-0.1323,-0.1317,-0.1318,-0.1346,-0.1337,-0.1323,-0.1359,-0.1335,-0.1337,-0.1367,-0.1373,-0.1379,-0.1371,-0.1303,0,0,0,0,0,-0.1217,-0.1233,-0.1246,-0.1264,-0.1274,-0.1287,-0.1298,-0.1307,-0.1318,-0.1327,-0.1335,-0.1343,-0.1352,-0.1359,-0.1363,-0.138,-0.1357,-0.1396,-0.1402,-0.1407,-0.1401,-0.1393,-0.1397,-0.1356,-0.1356,-0.1356,0,0,-0.1222,-0.1234,-0.1245,-0.1266,-0.1279,-0.1294,-0.1295,-0.1318,-0.1335,-0.1325,-0.1358,-0.1365,-0.1362,-0.1383,-0.1395,-0.138,-0.1406,-0.141,-0.1414,-0.1405,-0.1396,-0.14,-0.1403,-0.1358,-0.1358,-0.1357,0,0,-0.1232,-0.1253,-0.1267,-0.1282,-0.1307,-0.1314,-0.1327,-0.1347,-0.1362,-0.1389,-0.1391,-0.1411,-0.1425,-0.1426,-0.1428,-0.1466,-0.1437,-0.1476,-0.1494,-0.1488,-0.149,-0.1493,-0.1463,-0.1462,-0.1476,-0.1476,-0.1476,0,-0.1241,-0.1258,-0.1274,-0.129,-0.1306,-0.1327,-0.1345,-0.1361,-0.1387,-0.14,-0.1407,-0.1438,-0.1443,-0.146,-0.1477,-0.1478,-0.1461,-0.1469,-0.1494,-0.1495,-0.1497,-0.1466,-0.1464,-0.1478,-0.1478,-0.1478,-0.1477,0,-0.1251,-0.1277,-0.1287,-0.1316,-0.1334,-0.1354,-0.1378,-0.1404,-0.1429,-0.1441,-0.1476,-0.1483,-0.1496,-0.151,-0.1506,-0.1525,-0.1505,-0.1503,-0.1474,-0.1504,-0.1469,-0.1467,-0.1482,-0.1481,-0.148,-0.148,0,0,-0.1239,-0.1286,-0.1293,-0.1313,-0.1351,-0.1364,-0.14,-0.1428,-0.1452,-0.1482,-0.1506,-0.1533,-0.154,-0.1542,-0.1546,-0.1545,-0.1547,-0.1533,-0.1532,-0.1498,-0.1516,-0.1405,-0.1391,-0.1552,-0.1552,-0.1552,-0.1485,0,-0.1245,-0.1279,-0.1302,-0.1341,-0.1359,-0.1392,-0.1422,-0.1453,-0.148,-0.1508,-0.1524,-0.1549,-0.1551,-0.1565,-0.1567,-0.1557,-0.1544,-0.1564,-0.1496,-0.1493,-0.1387,-0.1386,-0.1552,-0.1483,-0.1482,-0.1482,-0.1481,0,-0.124,-0.1266,-0.1304,-0.1354,-0.1367,-0.1396,-0.1444,-0.1473,-0.1512,-0.1533,-0.1556,-0.1568,-0.1581,-0.1579,-0.1559,-0.1573,-0.1546,-0.153,-0.1527,-0.1403,-0.1378,-0.1449,-0.1476,-0.1477,-0.1477,-0.1477,-0.1478,0,-0.1208,-0.1264,-0.1296,-0.1314,-0.1373,-0.1403,-0.1437,-0.1482,-0.1504,-0.1549,-0.1561,-0.1581,-0.1586,-0.157,-0.1537,-0.1554,-0.1494,-0.1512,-0.1379,-0.137,-0.147,-0.1469,-0.1483,-0.1483,-0.1483,-0.1484,-0.1484,0,-0.1187,-0.1216,-0.129,-0.1306,-0.1347,-0.1397,-0.1438,-0.1474,-0.1518,-0.1531,-0.1571,-0.1568,-0.1586,-0.1555,-0.153,-0.1428,-0.1482,-0.1367,-0.1343,-0.1491,-0.1493,-0.1468,-0.1467,-0.1481,-0.1482,-0.1482,-0.1483,0,-0.1138,-0.119,-0.123,-0.1307,-0.1332,-0.1362,-0.1431,-0.1451,-0.1503,-0.1519,-0.1533,-0.1555,-0.1507,-0.1488,-0.1448,-0.1396,-0.1329,-0.1277,-0.1412,-0.1399,-0.1214,-0.1217,-0.113,-0.1125,-0.1122,-0.1118,-0.1116,0,-0.1111,-0.1129,-0.1217,-0.1242,-0.128,-0.1334,-0.1362,-0.1433,-0.1448,-0.1491,-0.1482,-0.1464,-0.1459,-0.1291,-0.1303,-0.1215,-0.1201,-0.1162,-0.1212,-0.1191,-0.1177,-0.1186,-0.1194,-0.111,-0.1109,-0.1108,-0.1107,0,-0.1054,-0.1099,-0.1132,-0.1182,-0.1225,-0.1259,-0.1308,-0.1306,-0.1372,-0.1436,-0.1377,-0.1331,-0.1263,-0.1211,-0.1132,-0.1085,-0.1194,-0.1123,-0.1131,-0.1178,-0.1166,-0.1158,-0.117,-0.1093,-0.1095,-0.1097,-0.1097,0,-0.101,-0.102,-0.107,-0.11,-0.1154,-0.1158,-0.1198,-0.1201,-0.1219,-0.1275,-0.1252,-0.1226,-0.1251,-0.114,-0.1079,-0.1007,-0.1004,-0.0985,-0.1001,-0.1016,-0.1009,-0.0978,-0.0811,0,0,0,0,0,-0.0956,-0.0953,-0.0979,-0.1004,-0.1053,-0.1076,-0.1144,-0.1184,-0.1253,-0.1175,-0.1207,-0.1137,-0.1041,-0.1034,-0.093,-0.1027,-0.1009,-0.0904,-0.0998,-0.102,-0.1035,-0.1036,0,0,0,0,0,0,-0.0919,-0.0942,-0.0945,-0.0913,-0.0908,-0.0942,-0.0978,-0.1028,-0.0991,-0.1063,-0.1007,-0.1064,-0.0976,-0.1061,-0.09,-0.0896,-0.0932,-0.0902,-0.0898,-0.1011,-0.1025,-0.1037,-0.1044,0,0,0,0,0]},{"header":{"parameterUnit":"m.s-1","parameterCategory":2,"la1":30.2991,"la2":30.254,"lo1":-89.0895,"lo2":-89.0444,"dy":0.0017,"dx":0.0017,"nx":28,"ny":28,"refTime":"2026-02-13T09:00:00:Z","depth":"4","parameterNumber":3,"parameterNumberName":"V-component_of_CURRENTS"},"data":[0,0,0,0,0,0,0,0,0,0,0,0,0,0,0,0,0,0,0,0,0,0,0,0,0,0,0,0,0,0,0,0,0,0,0,0,0,0,0,0,0,0,0,0,0,0,0,0,0,0,0,0,0,0,0,0,0,0,-0.0341,-0.0341,0,-0.0325,-0.0324,-0.0324,-0.0314,-0.0315,-0.0315,-0.0315,-0.024,-0.0238,-0.0236,0,0,0,0,0,0,0,0,0,0,0,0,0,-0.032,-0.0321,-0.0341,-0.0341,-0.0341,-0.0325,-0.0324,-0.0324,-0.0314,-0.0315,-0.0315,-0.0315,-0.0241,-0.0238,-0.0235,0,0,0,0,0,0,0,0,0,0,0,0,0,-0.0317,-0.0321,-0.0341,-0.0336,-0.0335,-0.0325,-0.0324,-0.0324,-0.0314,-0.0315,-0.0315,-0.0315,-0.0241,-0.0238,-0.0235,-0.0211,0,0,-0.0225,-0.0224,0,0,0,0,0,0,0,0,-0.0318,-0.0318,-0.0336,-0.0336,-0.0335,-0.0323,-0.029,-0.0284,-0.0314,-0.032,-0.0315,-0.0315,-0.0263,-0.0258,-0.0253,-0.0208,-0.0205,-0.0225,-0.0223,-0.0222,-0.0221,0,0,0,0,0,0,0,-0.0318,-0.0318,-0.0333,-0.0336,-0.0336,-0.0319,-0.0319,-0.0288,-0.0288,-0.032,-0.0319,-0.0321,-0.0262,-0.0256,-0.0251,-0.0204,-0.0225,-0.0222,-0.022,-0.0219,-0.0119,-0.0118,0,0,0,0,0,0,-0.0326,-0.0319,-0.0333,-0.0332,-0.0329,-0.032,-0.032,-0.0326,-0.029,-0.0286,-0.032,-0.032,-0.0262,-0.0255,-0.0248,-0.022,-0.0222,-0.0219,-0.0217,-0.0119,-0.0119,-0.0118,0,0,0,0,0,0,-0.0326,-0.0327,-0.0334,-0.0326,-0.0326,-0.032,-0.0327,-0.0325,-0.0326,-0.0291,-0.0286,-0.0325,-0.0261,-0.0253,-0.0224,-0.0217,-0.0217,-0.0215,-0.012,-0.0119,-0.0118,-0.0161,0,0,0,0,0,0,-0.0325,-0.0328,-0.0334,-0.0327,-0.0327,-0.0336,-0.0327,-0.0325,-0.0327,-0.0327,-0.0293,-0.0286,-0.0261,-0.0229,-0.0221,-0.0212,-0.0212,-0.0121,-0.012,-0.0118,-0.0161,-0.0162,-0.0163,0,0,0,0,0,-0.0324,-0.0335,-0.0335,-0.0337,-0.0337,-0.0337,-0.0335,-0.033,-0.0327,-0.0331,-0.0304,-0.0287,-0.0214,-0.0226,-0.0217,-0.0207,-0.0122,-0.012,-0.0119,-0.016,-0.0162,-0.0163,0,0,0,0,0,0,-0.0329,-0.0335,-0.0335,-0.0346,-0.0346,-0.0336,-0.0339,-0.0335,-0.0317,-0.0316,-0.0282,-0.0273,-0.0242,-0.0216,-0.0231,-0.0171,-0.0163,-0.0159,-0.0198,-0.0198,-0.0199,-0.0216,-0.0209,0,0,0,0,0,-0.0334,-0.0344,-0.0344,-0.0353,-0.0355,-0.0348,-0.0348,-0.0346,-0.033,-0.0324,-0.0299,-0.0263,-0.0225,-0.0208,-0.0174,-0.0146,-0.012,-0.013,-0.0131,-0.0132,-0.0137,-0.0087,-0.0084,-0.0112,-0.0112,-0.0112,0,0,-0.0339,-0.0343,-0.0349,-0.0355,-0.0353,-0.0358,-0.0348,-0.0353,-0.0351,-0.0316,-0.0303,-0.0267,-0.0218,-0.0186,-0.0169,-0.0166,-0.0111,-0.013,-0.0132,-0.0136,-0.0085,-0.0082,-0.008,-0.0111,-0.0111,-0.0111,0,0,-0.0352,-0.0358,-0.0369,-0.0371,-0.0375,-0.037,-0.0375,-0.0369,-0.0362,-0.0346,-0.0312,-0.0275,-0.023,-0.019,-0.0163,-0.0145,-0.0117,-0.0132,-0.0152,-0.0103,-0.0101,-0.0098,-0.007,-0.0065,-0.0133,-0.0134,-0.0134,0,-0.0357,-0.0373,-0.0372,-0.0381,-0.0384,-0.0378,-0.0388,-0.0378,-0.0362,-0.035,-0.0347,-0.0266,-0.0229,-0.0175,-0.0171,-0.0148,-0.0125,-0.0156,-0.0106,-0.0103,-0.01,-0.0071,-0.0065,-0.0135,-0.0135,-0.0135,-0.0135,0,-0.0376,-0.0389,-0.0396,-0.0406,-0.0407,-0.0416,-0.0407,-0.0403,-0.0394,-0.0377,-0.0335,-0.0283,-0.0235,-0.0213,-0.0189,-0.0142,-0.0136,-0.0115,-0.011,-0.01,-0.007,-0.0063,-0.0138,-0.0137,-0.0137,-0.0136,0,0,-0.0388,-0.0406,-0.041,-0.042,-0.0423,-0.0428,-0.0423,-0.0412,-0.0406,-0.0379,-0.0359,-0.0292,-0.0268,-0.0236,-0.0194,-0.0155,-0.0114,-0.0135,-0.0131,-0.0119,-0.0023,-0.005,-0.0045,-0.0089,-0.0087,-0.0086,-0.0015,0,-0.0404,-0.043,-0.0431,-0.0452,-0.0465,-0.0455,-0.0451,-0.0438,-0.0418,-0.0396,-0.0339,-0.0303,-0.0274,-0.0253,-0.0208,-0.0133,-0.0096,-0.0137,-0.0023,-0.002,-0.0056,-0.0037,-0.0082,-0.0009,-0.0007,-0.0006,-0.0005,0,-0.0421,-0.0438,-0.0465,-0.0479,-0.0483,-0.0492,-0.0486,-0.048,-0.0441,-0.0422,-0.0378,-0.0337,-0.0272,-0.0253,-0.0134,-0.0164,-0.0102,-0.0049,-0.0044,-0.0051,-0.0034,-0.0016,0.0008,0.0007,0.0006,0.0005,0.0005,0,-0.0435,-0.046,-0.0485,-0.0492,-0.0504,-0.0512,-0.0515,-0.049,-0.0481,-0.044,-0.0426,-0.0347,-0.0303,-0.0218,-0.0122,-0.0123,0.0002,0.0022,0.0056,0.0054,0.0074,0.0071,0.0105,0.0104,0.0104,0.0104,0.0104,0,-0.0451,-0.0472,-0.0499,-0.0514,-0.0541,-0.0537,-0.0549,-0.0538,-0.0512,-0.0495,-0.0443,-0.0406,-0.0292,-0.0212,-0.0126,-0.0022,0.0004,0.0051,0.0074,0.0054,0.0048,0.0079,0.0075,0.0107,0.0106,0.0106,0.0105,0,-0.0463,-0.0481,-0.0514,-0.0541,-0.0553,-0.0573,-0.0587,-0.0588,-0.0561,-0.0537,-0.0527,-0.0439,-0.0334,-0.023,-0.0082,-0.0028,0.0075,0.0107,0.006,0.0079,0.0095,0.0088,0.0156,0.0155,0.0155,0.0155,0.0155,0,-0.047,-0.0491,-0.0541,-0.0568,-0.0586,-0.0614,-0.0631,-0.0617,-0.061,-0.0551,-0.0535,-0.0441,-0.0374,-0.0186,-0.0082,0.0065,0.0086,0.0126,0.0123,0.0086,0.0102,0.0096,0.009,0.0154,0.0154,0.0154,0.0154,0,-0.0482,-0.0507,-0.0537,-0.0596,-0.0631,-0.0659,-0.0677,-0.0673,-0.0641,-0.062,-0.0526,-0.0432,-0.0316,-0.018,-0.0077,0.0032,0.0091,0.0124,0.0126,0.0124,0.0086,0.01,0.0094,0.0153,0.0153,0.0154,0.0154,0,-0.0492,-0.0521,-0.0568,-0.0615,-0.0664,-0.069,-0.0696,-0.0673,-0.0655,-0.0582,-0.0547,-0.0421,-0.0339,-0.0196,-0.0095,-0.0005,0.0025,0.0051,0.0057,0.0059,0.0002,-0.0062,-0.0018,0,0,0,0,0,-0.0496,-0.0532,-0.0582,-0.0634,-0.0682,-0.0705,-0.0719,-0.0712,-0.0679,-0.0614,-0.0576,-0.0464,-0.0301,-0.0224,-0.0134,-0.0113,0.0022,-0.0009,0.0051,0.0149,0.015,0.0096,0,0,0,0,0,0,-0.0502,-0.0553,-0.058,-0.0638,-0.0674,-0.0717,-0.0726,-0.0703,-0.0656,-0.0607,-0.0513,-0.0455,-0.0293,-0.0347,-0.0134,-0.0107,-0.0061,0.0072,0.0074,0.0148,0.0149,0.015,0.0095,0,0,0,0,0]}]]